This demonstration page uses our WeatherBlox Daily Observations layout. Learn more.

40.92945, -100.16068

Hourly Observations for November 26, 2020

Temp ( °F °C ) Dew Point ( °F °C ) Humidity (%) Winds ( mph kmh ) Pressure ( in mb ) Visibility ( mi km ) Precip ( " mm )
12:15 am 00:15 Clear 40 4.4 26 -3.6 56 56 SW 9 15 29.91 1013 10 16.0934 0 0
12:35 am 00:35 Clear 37 3 25 -3.8 61 61 NW 5 7 29.96 1014 10 16.0934 0 0
12:55 am 00:55 Clear 36 2.4 24 -4.2 62 62 SW 5 7 29.94 1014 10 16.0934 0 0
1:15 am 01:15 Clear 38 3.2 26 -3.5 62 62 SW 5 7 29.93 1013 10 16.0934 0 0
1:35 am 01:35 Clear 39 3.7 26 -3.5 60 60 SW 9 15 29.92 1013 10 16.0934 0 0
1:55 am 01:55 Clear 38 3.3 25 -3.7 60 60 SW 6 9 29.92 1013 10 16.0934 0 0
2:15 am 02:15 Clear 34 1.3 25 -4 68 68 WNW 7 11 29.96 1015 10 16.0934 0 0
2:35 am 02:35 Clear 33 0.6 24 -4.3 70 70 W 7 11 29.97 1015 10 16.0934 0 0
2:55 am 02:55 Clear 32 -0.2 24 -4.5 73 73 W 6 9 29.98 1015 10 16.0934 0 0
3:15 am 03:15 Clear 29 -1.7 23 -5 78 78 Calm 30 1016 10 16.0934 0 0
3:35 am 03:35 Clear 31 -0.8 23 -5 74 74 W 6 9 29.99 1016 10 16.0934 0 0
3:55 am 03:55 Clear 28 -2.1 23 -5.2 80 80 NW 7 11 30.02 1017 10 16.0934 0 0
4:15 am 04:15 Clear 28 -2.2 22 -5.3 80 80 NW 9 15 30.02 1017 10 16.0934 0 0
4:35 am 04:35 Clear 29 -1.8 22 -5.4 77 77 WNW 8 13 30.02 1017 10 16.0934 0 0
4:55 am 04:55 Clear 28 -2.5 22 -5.6 80 80 W 9 15 30.03 1017 10 16.0934 0 0
5:15 am 05:15 Clear 27 -2.8 22 -5.5 82 82 WNW 8 13 30.04 1017 10 16.0934 0 0
5:35 am 05:35 Clear 27 -2.6 22 -5.6 80 80 WNW 8 13 30.05 1018 10 16.0934 0 0
5:55 am 05:55 Clear 28 -2.5 22 -5.5 80 80 WNW 8 13 30.06 1018 10 16.0934 0 0
6:15 am 06:15 Clear 28 -2.2 22 -5.5 78 78 WNW 9 15 30.07 1018 10 16.0934 0 0
6:35 am 06:35 Clear 26 -3.1 21 -6 81 81 WNW 7 11 30.09 1019 10 16.0934 0 0
6:55 am 06:55 Clear 25 -4 21 -6.2 85 85 WNW 6 9 30.11 1020 10 16.0934 0 0
7:15 am 07:15 Clear 24 -4.4 20 -6.4 86 86 WNW 7 11 30.12 1020 10 16.0934 0 0
7:35 am 07:35 Clear 25 -4 21 -6.1 86 86 W 6 9 30.12 1020 10 16.0934 0 0
7:55 am 07:55 Sunny 25 -4.1 21 -6 87 87 WNW 8 13 30.13 1020 10 16.0934 0 0
8:15 am 08:15 Sunny 26 -3.3 22 -5.5 85 85 WNW 9 15 30.12 1020 10 16.0934 0 0
8:35 am 08:35 Sunny 29 -1.7 25 -4.1 84 84 WNW 6 9 30.11 1020 10 16.0934 0 0
8:55 am 08:55 Sunny 31 -0.3 26 -3.2 81 81 WNW 6 9 30.12 1020 10 16.0934 0 0
9:15 am 09:15 Sunny 33 0.3 28 -2.4 82 82 WNW 7 11 30.11 1020 10 16.0934 0 0
9:35 am 09:35 Sunny 34 1.2 29 -1.6 82 82 NW 5 7 30.12 1020 10 16.0934 0 0
9:55 am 09:55 Sunny 36 2.3 31 -0.8 80 80 NNW 7 11 30.1 1019 10 16.0934 0 0
10:15 am 10:15 Sunny 40 4.5 32 0 73 73 N 12 19 30.09 1019 10 16.0934 0 0
10:35 am 10:35 Sunny 42 5.3 32 0.2 70 70 NNE 12 19 30.09 1019 10 16.0934 0 0
10:55 am 10:55 Sunny 42 5.5 32 0 68 68 NNE 13 20 30.08 1019 10 16.0934 0 0
11:15 am 11:15 Sunny 43 6.1 32 0.1 66 66 NNE 9 15 30.08 1019 10 16.0934 0 0
11:35 am 11:35 Sunny 44 6.7 33 0.5 65 65 NNE 10 17 30.06 1018 10 16.0934 0 0
11:55 am 11:55 Sunny 45 7.4 33 0.7 63 63 N 12 19 30.06 1018 10 16.0934 0 0
12:15 pm 12:15 Sunny 46 7.6 33 0.6 62 62 NNE 9 15 30.05 1018 10 16.0934 0 0
12:35 pm 12:35 Sunny 47 8.1 33 0.6 59 59 NNE 14 22 30.04 1017 10 16.0934 0 0
12:55 pm 12:55 Sunny 47 8.4 33 0.6 58 58 N 13 20 30.03 1017 10 16.0934 0 0
1:15 pm 13:15 Sunny 48 8.8 33 0.5 56 56 N 7 11 30.02 1017 10 16.0934 0 0
1:35 pm 13:35 Sunny 48 9 33 0.6 56 56 N 9 15 30.01 1016 10 16.0934 0 0
1:55 pm 13:55 Sunny 49 9.2 33 0.4 54 54 N 10 17 30 1016 10 16.0934 0 0
2:15 pm 14:15 Sunny 49 9.5 32 0.2 53 53 N 12 19 30 1016 10 16.0934 0 0
2:35 pm 14:35 Sunny 49 9.5 32 0.1 52 52 N 9 15 29.99 1015 10 16.0934 0 0
2:55 pm 14:55 Sunny 49 9.6 32 0 52 52 N 10 17 29.98 1015 10 16.0934 0 0
3:15 pm 15:15 Sunny 49 9.5 32 -0.1 51 51 N 12 19 29.99 1015 10 16.0934 0 0
3:35 pm 15:35 Sunny 49 9.5 32 -0.2 51 51 NNE 10 17 29.99 1015 10 16.0934 0 0
3:55 pm 15:55 Sunny 49 9.5 32 -0.1 51 51 NNE 10 17 30 1016 10 16.0934 0 0
4:15 pm 16:15 Sunny 49 9.2 32 -0.1 53 53 NNE 7 11 30 1016 10 16.0934 0 0
4:35 pm 16:35 Sunny 47 8.6 32 -0.1 55 55 NNE 6 9 30 1016 10 16.0934 0 0
4:55 pm 16:55 Sunny 46 7.5 32 -0.1 59 59 NNE 6 9 30.02 1017 10 16.0934 0 0
5:15 pm 17:15 Clear 41 4.9 30 -1.1 65 65 N 8 13 30.06 1018 10 16.0934 0 0
5:35 pm 17:35 Clear 39 4 29 -1.4 68 68 N 7 11 30.08 1019 10 16.0934 0 0
5:55 pm 17:55 Clear 37 2.5 29 -1.7 74 74 N 7 11 30.1 1019 10 16.0934 0 0
6:15 pm 18:15 Clear 34 1 28 -2.2 79 79 N 7 11 30.13 1020 10 16.0934 0 0
6:35 pm 18:35 Clear 32 0 27 -3 80 80 N 5 7 30.15 1021 10 16.0934 0 0
6:55 pm 18:55 Clear 32 0 27 -2.7 82 82 N 6 9 30.16 1021 10 16.0934 0 0
7:15 pm 19:15 Clear 32 0 27 -3 80 80 NNE 5 7 30.17 1022 10 16.0934 0 0
7:35 pm 19:35 Clear 31 -0.5 26 -3.1 83 83 N 3 6 30.18 1022 10 16.0934 0 0
7:55 pm 19:55 Clear 30 -1 26 -3.5 83 83 Calm 30.2 1023 10 16.0934 0 0
8:15 pm 20:15 Clear 29 -1.5 26 -3.6 86 86 Calm 30.21 1023 10 16.0934 0 0
8:35 pm 20:35 Clear 30 -1 26 -3.2 85 85 NNW 3 6 30.22 1023 10 16.0934 0 0
8:55 pm 20:55 Clear 31 -0.6 27 -3 84 84 NW 5 7 30.22 1023 10 16.0934 0 0
9:15 pm 21:15 Clear 32 0 28 -2.3 85 85 WNW 5 7 30.23 1024 10 16.0934 0 0
9:35 pm 21:35 Clear 32 0 28 -2 87 87 W 3 6 30.23 1024 10 16.0934 0 0
9:55 pm 21:55 Partly Cloudy 32 0.1 28 -2 86 86 WNW 5 7 30.24 1024 10 16.0934 0 0
10:15 pm 22:15 Partly Cloudy 32 0 28 -2.1 86 86 WNW 6 9 30.25 1024 10 16.0934 0 0
10:35 pm 22:35 Mostly Cloudy 31 -0.7 27 -2.6 87 87 WNW 6 9 30.25 1025 10 16.0934 0 0
10:55 pm 22:55 Mostly Cloudy 31 -0.5 28 -2.4 87 87 WNW 5 7 30.26 1025 10 16.0934 0 0
11:15 pm 23:15 Partly Cloudy 30 -1 27 -2.7 88 88 WNW 3 6 30.27 1025 10 16.0934 0 0
11:35 pm 23:35 Mostly Cloudy 30 -1.2 27 -2.9 88 88 Calm 30.28 1025 10 16.0934 0 0
11:55 pm 23:55 Mostly Cloudy 30 -1.3 27 -2.9 89 89 Calm 30.27 1025 10 16.0934 0 0

Powered by AerisWeather